Погода в Новопавловке

Россия / Оренбургская область     51°08′26″N   55°35′57″E
темп.,
°C
ветер,
м/с
пор.,
м/с
влажн.,
%
обл.,
%
осадки,
мм/ч
давл.,
гПа
погр.,
м
7 августа, вс
вс723:00+22в410405 0.0 1018162
02:00+20св46455 0.0 101882
05:00+19св475110 0.0 1018107
08:00+22всв47472 0.0 1018211
11:00+28всв683116 0.0 10181955
14:00+30в47255 0.0 10173090
17:00+30в582410 0.0 10163127
20:00+27св333036 0.0 101643
8 августа, пн
пн823:00+24в3942100 0.0 1017242
02:00+21всв465015 0.0 101793
05:00+20всв34609 0.0 101769
08:00+21всв355867 0.0 1018161
11:00+27всв4542100 0.0 10181174
14:00+29всв34329 0.0 10172348
17:00+29всв233198 0.0 10162467
20:00+26юв2345100 0.0 101652
9 августа, вт
вт923:00+23вюв2254100 0.0 101714
02:00+21в3369100 0.0 101754
05:00+20всв357039 0.2 1017123
08:00+22в45645 0.0 1018204
11:00+27в44395 0.0 10181221
14:00+29всв333210 0.0 10172274
17:00+30св343098 0.0 10162931
20:00+27в573977 0.0 1017358
10 августа, ср
ср1023:00+22вюв34535 0.0 101858
02:00+21вюв225414 0.0 101817
05:00+19в22565 0.0 101811
08:00+22вюв12485 0.0 1019141
11:00+27юв22355 0.0 10191082
14:00+30в112946 0.0 10182303
17:00+31ссв122872 0.0 10172643
20:00+29ссз223567 0.0 101716
11 августа, чт
чт1123:00+25всв334036 0.0 101738
02:00+25ююв234098 0.0 101759
05:00+24юв114555 0.0 101811
08:00+26ююв11415 0.0 1019115
11:00+30зюз11310 0.0 10181346
14:00+32з2226100 0.0 10173275
17:00+32зюз122649 0.0 10172365
20:00+28с113598 0.1 101613